Content
SEND FEEDBACK

Daily
Averages
Monthly
Summary
United States of America

MAURICEVILLE, TEXAS


Home > North America > United States > Texas
Elevation: 20 feet     Latitude: 30 14N     Longitude: 093 44W

WEATHER
 
SELECT A DAY
Number of Records: 110,644;   Date Range: 8/25/05 - 9/19/14
 
SHARE

PRINT THIS DATA

[ ← Previous Day ]
WEATHER ALMANAC - JANUARY 31, 2013
[ Next Day → ]
[ °C ]   °F
Weather ElementAverageHighLow
Temperature47.9 °F60.8 °F (12:55 pm)32 °F (4:15 am)
Dewpoint36.1 °F42.8 °F (11:55 pm)32 °F (4:15 am)
Humidity68.9 %100 % (12:35 am)36 % (12:15 pm)
Barometer30.29 in30.35 in (11:15 pm)30.23 in (5:15 am)
Wind Speed5.7 mph17.3 mph (3:35 pm)
Wind Gust23 mph (3:15 pm)
Weather ElementAverage
Visibility9.9 mi
Wind DirectionESE (124.8 °)

Weather ElementTotal
Precipitation---
Heating Degree Days18.6 (Base 65)
Averaged from 71 records on January 31, 2013
WEATHER CONDITIONS BREAKOUT
WIND DIRECTION BREAKOUT
WEATHER BY HOUR - JANUARY 31, 2013
[ °C ]   °F
Local TimeTemperatureDewpointHumidityBarometerVisibilityWind DirectionWind SpeedGust SpeedPrecipitationEventsConditions
12:35 AM35.6 °F35.6 °F100 %30.25 in10.0 miCalmClear
12:55 AM37.4 °F35.6 °F93 %30.25 in10.0 miCalmClear
1:15 AM35.6 °F35.6 °F100 %30.26 in10.0 miSouth (190°)3.5 mphClear
1:35 AM35.6 °F33.8 °F93 %30.27 in10.0 miSW (220°)3.5 mphClear
1:55 AM35.6 °F35.6 °F100 %30.25 in10.0 miCalmClear
2:15 AM35.6 °F35.6 °F100 %30.24 in10.0 miCalmClear
2:35 AM35.6 °F33.8 °F93 %30.24 in10.0 miCalmClear
2:55 AM33.8 °F33.8 °F100 %30.24 in10.0 miCalmClear
3:15 AM33.8 °F33.8 °F100 %30.24 in10.0 miCalmClear
3:35 AM33.8 °F33.8 °F100 %30.24 in10.0 miCalmClear
3:55 AM33.8 °F33.8 °F100 %30.25 in10.0 miCalmClear
4:15 AM32.0 °F32.0 °F100 %30.24 in10.0 miCalmClear
4:35 AM33.8 °F33.8 °F100 %30.24 in10.0 miCalmClear
4:55 AM33.8 °F33.8 °F100 %30.24 in10.0 miCalmClear
5:15 AM33.8 °F33.8 °F100 %30.23 in1.8 miCalmMist
5:35 AM33.8 °F33.8 °F100 %30.24 in10.0 miCalmClear
5:55 AM33.8 °F33.8 °F100 %30.25 in10.0 miCalmClear
6:15 AM33.8 °F33.8 °F100 %30.25 in10.0 miCalmClear
6:35 AM33.8 °F33.8 °F100 %30.26 in10.0 miCalmClear
6:55 AM33.8 °F33.8 °F100 %30.27 in10.0 miCalmClear
7:15 AM32.0 °F32.0 °F100 %30.28 in10.0 miCalmClear
7:35 AM33.8 °F33.8 °F100 %30.28 in10.0 miCalmClear
7:55 AM35.6 °F35.6 °F100 %30.30 in10.0 miCalmClear
8:15 AM37.4 °F37.4 °F100 %30.31 in10.0 miCalmClear
8:35 AM44.6 °F41.0 °F87 %30.32 in10.0 miCalmClear
8:55 AM46.4 °F39.2 °F76 %30.32 in10.0 miCalmClear
9:15 AM50.0 °F41.0 °F71 %30.33 in10.0 miSSW (200°)3.5 mphClear
9:35 AM51.8 °F41.0 °F67 %30.34 in10.0 miSW (220°)4.6 mphClear
9:55 AM53.6 °F35.6 °F51 %30.34 in10.0 miSouth (170°)4.6 mphClear
10:15 AM53.6 °F35.6 °F51 %30.34 in10.0 miSSW (200°)4.6 mphClear
10:35 AM55.4 °F32.0 °F41 %30.34 in10.0 miSouth (170°)8.1 mphClear
10:55 AM55.4 °F32.0 °F41 %30.34 in10.0 miSouth (190°)6.9 mphClear
11:15 AM59.0 °F33.8 °F39 %30.34 in10.0 miSSW (210°)8.1 mphClear
11:35 AM59.0 °F33.8 °F39 %30.33 in10.0 miSSW (200°)6.9 mphClear
11:55 AM59.0 °F33.8 °F39 %30.32 in10.0 miSSW (210°)9.2 mphClear
12:15 PM59.0 °F32.0 °F36 %30.32 in10.0 miSouth (170°)10.4 mphClear
12:35 PM59.0 °F33.8 °F39 %30.31 in10.0 miSouth (190°)4.6 mph10.4 mphClear
12:55 PM60.8 °F33.8 °F36 %30.30 in10.0 miSouth (170°)12.7 mphClear
1:15 PM60.8 °F35.6 °F39 %30.30 in10.0 miSouth (180°)12.7 mph16.1 mphClear
1:35 PM60.8 °F35.6 °F39 %30.29 in10.0 miSSE (160°)16.1 mphClear
1:55 PM60.8 °F35.6 °F39 %30.28 in10.0 miSouth (180°)15.0 mph20.7 mphClear
2:15 PM59.0 °F35.6 °F42 %30.28 in10.0 miSouth (170°)16.1 mph20.7 mphClear
2:35 PM59.0 °F35.6 °F42 %30.28 in10.0 miSouth (170°)13.8 mphClear
2:55 PM59.0 °F33.8 °F39 %30.28 in10.0 miSouth (170°)11.5 mph20.7 mphClear
3:15 PM60.8 °F33.8 °F36 %30.28 in10.0 miSouth (180°)15.0 mph23.0 mphClear
3:35 PM59.0 °F32.0 °F36 %30.28 in10.0 miSouth (190°)17.3 mph23.0 mphClear
3:55 PM59.0 °F33.8 °F39 %30.27 in10.0 miSouth (180°)13.8 mph18.4 mphClear
4:15 PM59.0 °F33.8 °F39 %30.26 in10.0 miSouth (170°)17.3 mph21.9 mphClear
4:35 PM59.0 °F33.8 °F39 %30.28 in10.0 miSouth (180°)15.0 mphClear
4:55 PM59.0 °F33.8 °F39 %30.28 in10.0 miSouth (190°)12.7 mph17.3 mphClear
5:15 PM57.2 °F33.8 °F41 %30.28 in10.0 miSouth (180°)12.7 mphClear
5:35 PM55.4 °F35.6 °F47 %30.27 in10.0 miSouth (190°)10.4 mphClear
5:55 PM55.4 °F37.4 °F51 %30.27 in10.0 miSouth (190°)9.2 mphClear
6:15 PM53.6 °F37.4 °F54 %30.27 in10.0 miSouth (190°)9.2 mphClear
6:35 PM53.6 °F39.2 °F58 %30.28 in10.0 miSouth (190°)8.1 mphClear
6:55 PM53.6 °F39.2 °F58 %30.28 in10.0 miSouth (190°)6.9 mphClear
7:15 PM53.6 °F37.4 °F54 %30.28 in10.0 miSouth (180°)6.9 mphClear
7:35 PM53.6 °F39.2 °F58 %30.29 in10.0 miSouth (180°)8.1 mphClear
7:55 PM51.8 °F39.2 °F62 %30.30 in10.0 miSouth (190°)6.9 mphClear
8:15 PM50.0 °F41.0 °F71 %30.31 in10.0 miSSW (200°)4.6 mphClear
8:35 PM51.8 °F41.0 °F67 %30.32 in10.0 miSSW (210°)5.8 mphClear
8:55 PM50.0 °F41.0 °F71 %30.33 in10.0 miSSW (200°)6.9 mphClear
9:15 PM50.0 °F41.0 °F71 %30.34 in10.0 miSSW (200°)4.6 mphClear
9:35 PM51.8 °F41.0 °F67 %30.34 in10.0 miSouth (190°)5.8 mphClear
9:55 PM51.8 °F41.0 °F67 %30.34 in10.0 miSSW (200°)4.6 mphClear
10:15 PM51.8 °F41.0 °F67 %30.34 in10.0 miSSW (200°)4.6 mphClear
10:35 PM50.0 °F41.0 °F71 %30.34 in10.0 miSouth (190°)4.6 mphClear
10:55 PM50.0 °F41.0 °F71 %30.34 in10.0 miSSW (200°)4.6 mphClear
11:15 PM50.0 °F41.0 °F71 %30.35 in10.0 miSouth (190°)4.6 mphClear
11:35 PM48.2 °F41.0 °F76 %30.34 in10.0 miSouth (190°)4.6 mphClear
11:55 PM48.2 °F42.8 °F82 %30.34 in10.0 miSouth (180°)3.5 mphClear
Hourly data recorded from KORG, located miles away from Mauriceville, Texas







STORIES FROM OUR PARTNERS